FLOCK 3P-9 (41973 NORAD) Tracking and Keplerian Element Data

This shows tracking and keplerian element data for the satellite.

Feedback or suggestion? Click here.




ElementValue
Catalog41973
NameFLOCK 3P-9
Epoch Orbit5539
Epoch Day45.84366979
Epoch Year2018
RAAN111.3479
Inclination97.466
Eccentricity0.0009724
Argument of Perigee67.9558
Mean Anonmoly292.2711
Mean Motion15.23922529
Decay Rate3.375E-05
L11 41973U 17008AB 18045.84366979 .00003375 00000-0 14250-3 0 9993
L22 41973 97.4660 111.3479 0009724 67.9558 292.2711 15.23922529 55392

Live tracking and technical data element details for FLOCK 3P-9 (NORAD 41973). FLOCK 3P-9 can be tracked NOW for your location showing map with azimuth and elevation plus other details from your city location.

Track the satellite on the map from your city or location and see movement details for azimuth, elevation, latitude, longitude, range, height, and movement on the map or in text.







IsCatalogInMostPopularTable: catalog: 41973, numindb: 123
Update: records affected: 1



GetName: 41973 FLOCK 3P-9

Hit Count: updated at: Mon, 12 Nov 2018 18:18:36 GMT